Wind_Speed
48 49 50 51 51 51 51 52 52 52 52 52 53 54 55 56 56 56 57 57 57 57 58 58 59 59 59 59 60 60 59 58 56 54 51 48 44 41 37 34 30 26 22 19 16 14 12 11 10 11 12 13 13 13 12 12 11 11 10 10 9 9 9 10 11 12 13 14 16 17 18 19 21 22 23 24 25 26 27 28 29 30 30 32 33 34 35 36
48 49 50 50 51 51 51 52 52 52 52 53 54 55 56 56 57 57 57 58 58 58 59 59 60 60 60 60 59 58 56 54 50 47 43 39 35 31 27 23 20 16 14 13 12 11 12 13 14 15 15 15 14 14 13 12 11 10 9 9 8 9 10 11 12 14 15 16 18 19 21 22 23 24 25 26 27 28 29 30 31 32 32 33 34 35 36 37
47 48 49 49 50 50 50 51 52 52 53 54 55 56 57 57 58 58 59 59 59 60 60 60 60 60 59 58 56 53 49 45 41 37 33 29 25 21 17 14 12 11 12 12 13 15 16 17 17 16 16 15 14 13 12 10 9 9 8 8 9 10 11 13 14 15 17 18 20 21 23 24 25 26 27 28 29 30 31 32 33 33 34 34 35 36 37 38
46 47 48 48 49 49 50 51 52 53 54 55 56 57 57 58 59 59 59 60 60 60 60 60 59 57 55 51 48 44 40 36 31 27 22 19 15 13 11 11 12 14 15 17 18 18 18 18 17 16 15 14 13 11 10 8 7 8 8 9 10 12 13 14 16 17 19 20 22 23 25 26 27 29 29 30 31 32 33 34 35 35 35 36 37 39 39 40
44 46 47 47 48 49 50 52 53 54 55 56 56 57 58 58 59 59 59 60 60 59 58 55 52 49 45 42 38 34 29 25 21 17 13 11 10 11 13 15 17 19 20 20 20 19 18 17 17 15 14 12 11 9 8 8 8 9 10 11 12 13 15 16 18 19 21 23 24 26 27 28 29 30 31 33 33 34 35 36 37 37 38 39 39 41 42 43
44 45 46 47 49 50 51 52 54 54 55 56 57 58 58 58 58 58 58 57 55 52 49 45 41 38 34 31 27 23 19 16 13 11 11 13 15 17 19 21 21 22 22 21 20 19 17 16 15 13 12 10 9 8 7 8 9 10 11 12 14 15 17 19 20 22 24 25 27 28 29 30 32 32 33 35 36 36 38 39 40 41 41 42 43 44 45 47
44 45 47 48 49 50 52 53 54 55 55 56 56 56 56 55 54 52 50 47 44 40 36 33 30 26 23 20 17 14 12 12 13 15 18 20 22 23 24 24 24 23 22 20 19 17 16 14 12 11 9 8 7 7 8 9 10 12 13 15 16 18 19 21 23 24 26 27 29 31 32 33 34 35 35 37 39 39 41 42 43 45 45 46 47 47 48 50
44 46 47 48 49 50 51 52 52 52 52 52 51 50 48 46 44 41 38 34 31 28 25 22 19 16 14 13 12 13 15 17 19 22 24 25 26 26 25 24 23 22 20 18 16 15 13 11 10 8 7 7 7 8 9 11 12 14 15 17 18 20 22 23 25 26 28 29 31 33 34 34 37 39 38 40 42 42 43 45 46 48 49 49 50 51 52 52
44 44 45 45 46 46 47 47 46 45 44 43 41 39 36 34 31 28 26 23 21 19 17 15 14 13 14 15 18 20 22 24 26 27 27 28 27 26 24 22 21 19 17 15 13 11 10 8 7 7 7 8 8 10 11 13 14 16 18 19 21 22 24 25 26 28 30 30 33 37 37 36 39 43 43 42 45 46 47 48 49 51 52 53 54 55 55 55
39 39 39 38 38 38 38 37 36 34 33 31 29 26 24 22 21 19 17 16 15 14 14 14 16 18 20 22 25 27 28 29 29 29 28 27 25 23 22 19 17 15 13 11 9 8 7 6 6 7 8 9 10 12 13 15 17 18 20 22 24 25 26 28 29 31 33 33 35 40 42 40 40 45 47 46 47 49 51 52 53 54 55 56 57 57 58 58
31 30 30 29 29 28 27 26 24 23 21 20 19 18 17 16 15 15 14 14 15 17 19 21 23 25 27 29 30 31 31 30 29 27 26 24 22 20 17 15 13 11 9 7 6 5 5 5 6 8 9 11 12 14 16 18 19 21 23 24 27 28 29 31 33 34 36 37 37 41 47 46 43 45 49 50 50 50 53 56 57 57 57 58 59 60 60 61
21 21 20 20 20 19 18 17 16 15 15 15 15 14 14 15 15 16 18 20 22 24 27 29 30 32 32 32 32 31 30 28 26 24 22 20 17 15 13 11 9 7 5 4 4 4 5 6 8 10 12 13 15 17 19 21 23 24 26 28 30 32 33 34 35 37 39 40 40 42 49 53 49 47 50 52 53 53 55 58 60 60 60 61 62 63 63 64
13 12 12 12 12 12 12 12 12 13 13 14 15 16 17 19 21 24 26 29 30 32 33 34 34 34 33 32 30 29 27 25 22 20 18 15 13 11 9 7 5 4 3 3 4 5 7 8 10 12 14 16 18 20 22 24 26 28 29 31 33 35 36 37 38 39 40 42 43 42 47 57 58 53 51 52 53 54 56 60 63 63 62 63 64 65 67 68
5 5 6 7 8 9 10 12 13 15 17 19 21 23 26 28 30 32 34 35 36 36 36 36 35 33 31 29 27 25 23 21 19 16 14 12 10 8 6 4 2 2 2 4 6 8 10 11 13 15 17 19 21 23 24 26 28 30 31 32 34 36 38 40 41 42 42 44 47 46 46 55 63 61 57 55 54 54 57 61 66 67 67 67 67 66 68 71
7 9 10 11 12 14 15 18 20 23 25 27 29 31 33 35 36 37 38 38 38 37 36 34 33 31 28 26 24 22 19 17 15 13 10 9 7 5 3 1 1 3 5 7 9 11 13 15 16 18 20 21 23 24 26 27 29 31 33 34 35 37 39 40 42 44 45 46 49 50 48 54 63 67 64 61 59 57 58 61 65 69 71 72 72 71 70 72
15 16 17 18 20 21 23 25 27 30 32 34 36 37 38 39 39 40 39 39 38 36 34 31 30 27 24 22 20 18 15 13 11 9 7 5 3 1 1 3 5 7 8 10 12 13 15 17 18 20 22 23 25 27 28 29 31 33 35 37 38 39 40 42 44 46 47 48 51 53 51 54 64 69 69 68 66 63 62 62 64 67 71 74 76 76 74 74
21 23 24 26 28 29 30 32 34 36 37 39 40 40 40 40 40 39 39 37 35 34 31 28 26 24 21 18 17 14 12 10 8 6 4 2 1 2 4 5 7 9 11 12 14 16 17 19 20 22 24 25 27 29 31 32 34 36 37 39 41 42 44 44 46 48 49 50 54 56 54 56 64 69 71 72 72 71 69 68 67 68 70 73 75 77 77 77
27 29 31 33 34 35 37 39 40 41 41 42 42 41 40 39 38 37 35 34 32 30 28 25 22 20 18 15 14 12 9 7 5 3 2 1 2 4 6 8 9 11 13 14 16 18 20 22 23 25 27 28 30 32 34 35 37 39 40 42 43 45 48 49 49 51 52 52 56 59 58 60 67 70 72 74 74 74 75 74 74 74 74 74 76 78 79 80
32 33 35 37 38 40 41 42 43 43 43 42 41 40 38 36 34 33 31 29 28 26 24 22 20 17 15 13 12 10 7 6 4 3 2 3 4 6 8 10 12 14 16 17 19 21 23 25 27 29 30 32 34 36 37 39 40 42 43 45 46 47 51 54 54 55 55 56 59 62 61 65 70 72 73 75 76 76 76 77 78 78 77 77 78 79 81 82
36 37 38 40 41 42 43 43 43 43 42 40 39 37 36 33 30 29 28 26 24 23 21 19 17 15 13 12 10 8 6 5 4 4 4 6 7 9 11 13 15 17 19 21 23 24 26 28 30 32 34 36 38 40 41 43 44 45 47 49 50 51 53 57 58 59 60 59 62 65 65 69 74 75 75 77 78 78 78 79 80 80 80 79 79 81 82 83
39 40 41 42 42 43 43 43 42 41 40 38 36 34 33 31 28 25 24 22 21 20 18 16 14 13 11 9 8 6 5 4 4 5 7 9 11 12 14 16 18 20 22 24 26 28 30 32 34 36 38 39 41 43 45 47 48 50 51 52 54 56 56 59 61 62 63 63 64 68 68 72 78 79 79 80 80 80 80 81 82 82 82 82 83 84 85 86
41 42 42 43 43 43 42 41 40 39 37 35 33 31 30 28 25 22 20 19 18 16 14 12 10 9 7 6 5 4 4 6 7 9 11 13 15 17 18 20 22 25 26 28 30 32 35 36 38 40 42 43 45 47 49 51 53 53 54 56 58 60 60 62 65 66 68 68 67 69 70 74 80 82 82 82 82 82 82 83 84 84 85 86 88 88 88 89
41 42 42 42 42 41 40 39 38 36 34 32 31 29 27 25 23 20 17 15 14 12 10 8 6 5 4 3 4 5 7 9 11 13 15 17 19 20 22 24 27 29 31 33 35 36 39 40 42 44 45 47 48 50 52 55 57 58 58 60 61 64 64 64 66 68 71 73 72 71 71 75 80 83 84 84 84 84 83 84 85 86 87 88 90 91 91 92
40 41 40 40 39 38 37 36 35 33 31 29 27 25 23 21 19 17 14 12 10 8 6 4 4 3 4 6 7 9 10 13 14 16 19 20 22 24 26 29 31 33 35 37 39 40 42 44 46 47 49 51 52 54 55 57 61 63 63 64 65 67 68 68 68 69 72 75 77 74 73 76 81 83 86 87 85 85 86 86 86 87 88 89 90 92 93 94
39 39 38 37 36 35 33 32 31 29 27 25 23 21 19 17 15 13 10 8 6 5 4 3 4 5 7 9 10 12 14 16 18 20 22 24 26 28 30 33 35 37 39 41 42 44 46 48 50 51 53 55 56 58 59 60 63 66 67 69 70 70 72 73 73 72 73 76 79 78 75 77 82 84 86 87 86 85 87 88 88 88 88 89 90 92 94 95
36 35 34 33 32 31 29 28 26 25 23 21 18 16 14 13 11 8 6 5 4 4 5 7 8 10 11 13 15 16 18 20 22 25 27 28 31 32 34 37 39 41 43 44 46 48 50 51 53 55 57 58 60 61 63 64 66 68 70 71 72 73 74 75 76 76 76 77 79 80 79 79 82 86 87 87 86 86 87 88 89 90 90 91 92 93 95 96
32 31 30 29 28 26 25 23 21 20 18 16 13 12 10 9 7 5 4 4 6 7 9 11 12 14 16 17 19 21 23 25 27 29 30 32 35 37 39 41 43 45 47 49 50 52 53 55 57 59 61 62 64 65 66 67 68 70 71 73 74 75 77 77 78 79 79 80 81 82 83 82 84 88 89 88 88 89 90 90 91 92 93 94 95 96 97 98
28 27 26 24 23 22 21 19 17 15 13 11 9 8 7 6 5 5 6 8 9 11 13 14 16 18 19 21 23 25 27 28 31 33 34 36 38 40 42 44 47 49 51 52 54 56 57 59 61 62 64 66 67 68 70 70 71 72 73 75 76 77 78 79 80 81 82 83 84 85 86 86 87 91 91 88 90 92 93 94 95 95 97 98 99 100 101 102
24 23 21 20 18 17 16 14 13 11 9 7 6 5 5 6 7 8 10 11 13 14 16 18 20 22 23 25 27 29 30 32 34 36 38 40 42 44 46 48 51 53 55 57 58 60 61 62 64 65 67 69 71 72 73 73 73 74 75 77 79 79 80 81 82 83 85 86 88 89 90 90 90 93 92 89 90 93 94 96 97 99 100 101 103 104 104 104
20 19 17 16 15 13 12 11 9 8 6 5 5 5 7 8 10 11 13 14 16 17 19 21 23 25 27 29 31 32 34 36 38 40 42 44 46 48 49 52 54 56 58 61 62 63 64 66 67 68 70 72 74 75 76 76 77 77 78 79 80 82 83 84 85 86 87 89 91 92 93 94 94 95 95 93 93 94 96 98 99 101 103 104 105 105 105 105
16 15 14 12 11 10 9 7 7 6 6 6 7 8 10 11 13 15 16 18 20 21 23 25 27 29 30 32 34 36 38 40 42 44 46 48 49 51 53 55 58 60 62 65 67 68 68 69 70 71 73 74 76 78 80 80 80 81 81 81 82 83 84 85 87 88 89 91 93 93 94 97 98 98 98 98 98 99 99 99 100 102 103 103 104 104 104 103
12 11 10 9 8 7 7 6 6 7 8 9 10 12 13 15 17 18 20 21 23 25 27 29 30 32 34 36 38 40 42 44 46 47 49 51 53 55 57 58 60 61 64 67 70 71 71 72 73 74 75 77 78 80 82 83 84 84 85 85 85 85 85 85 86 86 87 90 93 94 96 98 100 100 100 100 100 100 99 99 99 99 100 100 100 101 100 100
10 9 8 7 7 6 7 7 8 9 11 12 14 15 17 19 20 22 24 25 27 28 30 32 34 36 38 40 41 43 45 47 49 51 53 55 56 58 59 60 61 62 63 65 68 71 72 73 74 76 77 79 80 81 83 84 85 85 86 86 87 87 86 86 86 86 87 90 93 96 97 98 98 98 99 98 97 97 96 96 96 95 95 95 95 95 96 96
8 8 7 7 7 8 9 10 11 13 14 16 17 19 21 22 24 26 27 29 31 32 34 36 38 40 42 44 45 47 49 51 53 54 56 58 59 61 62 63 64 65 66 67 70 72 74 74 75 76 78 80 82 83 84 85 85 86 86 88 89 90 91 91 91 91 90 91 93 94 95 96 93 92 94 93 92 92 90 90 90 90 90 90 90 90 90 90
8 8 8 8 9 10 12 13 14 16 18 19 21 23 24 26 28 29 31 33 34 36 38 40 41 43 45 47 49 51 52 54 56 57 58 60 61 62 64 65 66 67 68 70 71 74 77 78 78 79 80 82 84 85 86 88 89 90 91 93 94 95 95 95 95 94 92 91 91 90 91 94 93 90 91 91 90 90 88 87 87 87 87 87 86 85 85 85
9 9 10 11 12 14 15 17 18 20 21 23 24 26 28 29 31 33 34 36 38 40 41 43 45 47 49 51 52 54 55 56 58 59 60 62 63 64 65 66 68 69 70 71 72 74 77 80 81 81 83 84 86 89 91 92 94 95 96 96 97 96 94 93 92 91 90 88 88 87 88 91 91 88 88 89 87 87 87 87 86 85 85 85 84 84 83 83
11 12 13 14 16 17 19 20 21 23 25 26 28 29 31 32 34 36 38 40 41 43 45 47 48 50 52 54 55 56 57 58 59 61 62 63 65 66 67 68 70 71 72 73 74 75 77 80 83 83 85 88 90 92 94 95 96 96 95 95 94 93 91 90 89 87 87 85 84 83 84 89 90 86 85 85 84 84 84 84 83 83 83 83 83 82 82 82
13 14 16 17 19 20 22 23 25 26 28 29 31 32 34 36 38 39 41 43 45 46 48 49 51 52 54 55 57 58 59 61 62 63 64 65 67 68 70 71 72 73 74 75 76 78 79 81 85 87 88 90 91 93 93 94 94 93 93 92 91 90 87 87 87 87 87 86 83 80 80 85 89 86 85 85 83 82 82 83 83 82 82 82 81 81 81 81
16 17 18 20 21 23 24 26 27 29 31 32 34 36 37 39 41 42 44 46 48 49 51 52 53 54 55 56 58 59 61 62 63 64 66 67 69 70 72 73 74 75 77 78 80 82 83 84 87 89 90 90 89 89 89 89 90 90 90 90 90 89 86 85 87 88 88 89 87 81 77 82 87 87 86 86 84 84 85 85 85 85 85 85 84 83 82 82
19 20 21 23 24 25 27 29 30 32 34 35 37 39 40 42 44 45 47 48 50 51 52 53 54 55 57 58 59 61 62 63 65 66 68 69 70 71 73 75 77 78 80 82 83 85 85 85 85 86 86 86 85 85 86 86 87 88 89 89 89 88 86 85 86 88 89 90 90 85 78 80 87 89 88 88 87 87 88 88 88 89 89 89 88 87 86 86
21 22 24 25 27 28 30 31 33 35 36 38 40 41 43 45 46 47 49 50 51 52 53 54 56 57 58 60 61 63 64 65 66 67 69 70 72 74 76 78 80 81 83 84 84 83 82 81 80 80 81 82 82 83 84 86 87 89 90 90 89 88 87 85 84 85 87 89 90 88 82 81 87 90 90 91 90 89 90 91 90 91 92 92 92 92 91 92
23 25 26 28 29 31 32 34 36 37 39 41 42 44 45 46 47 48 50 51 52 53 54 56 57 59 60 61 63 64 65 66 68 70 71 73 75 77 78 80 80 81 80 80 79 78 77 76 76 77 79 82 83 83 84 85 87 89 91 92 90 88 87 87 86 86 86 88 89 89 86 83 84 88 90 92 94 93 94 95 94 94 95 95 95 95 95 96
25 27 29 30 32 33 35 37 38 40 41 43 44 45 46 47 48 49 50 52 53 55 56 57 59 60 61 62 63 65 67 69 70 72 74 76 77 78 78 78 77 76 75 75 75 76 76 76 75 76 77 79 81 82 82 83 85 87 89 91 90 89 87 88 89 89 89 89 90 90 89 85 82 84 88 93 96 95 96 96 97 97 97 98 98 98 98 99
28 29 31 33 34 36 37 39 40 41 42 43 44 45 46 47 49 50 52 53 55 56 57 58 59 60 62 63 65 67 69 71 73 74 75 75 75 74 73 73 72 72 72 73 74 76 77 78 77 77 78 77 76 75 75 77 80 83 86 89 90 89 89 89 90 92 92 92 91 91 91 87 81 82 88 93 95 94 94 95 97 98 98 99 99 100 100 101
30 32 33 34 36 37 38 40 41 42 43 44 45 46 47 49 50 52 53 54 55 56 57 58 60 62 64 66 68 70 71 72 72 72 71 70 70 70 70 70 70 71 72 73 74 75 77 78 78 79 81 82 80 78 78 78 78 81 83 85 87 89 89 90 91 93 95 94 91 91 93 89 82 83 88 91 93 94 94 96 97 97 98 99 100 101 102 102
32 34 35 36 37 38 39 40 41 42 43 44 46 47 49 51 52 52 53 53 55 56 58 60 62 65 67 69 70 70 70 69 68 67 67 67 68 68 69 70 70 71 71 72 72 73 73 74 75 75 78 82 82 80 81 81 80 81 82 82 83 85 86 87 89 91 94 96 91 88 91 90 86 87 89 91 92 94 96 98 99 99 99 99 101 102 103 103
34 35 36 36 37 38 39 40 42 43 45 46 48 49 49 50 50 51 52 54 56 58 60 63 65 66 67 66 66 65 65 65 65 65 66 67 68 69 69 70 70 70 70 70 70 70 70 70 71 70 72 76 77 76 76 77 77 79 82 82 80 81 82 84 86 88 93 95 92 88 89 90 90 90 91 91 93 96 98 100 102 101 101 102 103 104 104 104
34 35 36 37 38 39 40 42 43 45 46 47 47 48 48 49 50 52 54 56 58 61 62 63 63 62 61 60 59 60 61 62 64 65 65 66 68 69 70 70 70 70 70 70 70 70 69 68 67 65 65 69 72 71 71 72 74 76 80 81 80 79 80 82 84 87 90 93 92 91 91 92 93 93 93 93 95 98 100 103 104 104 104 105 106 106 106 105
34 35 37 38 39 41 42 44 44 45 45 45 45 47 48 50 52 54 57 58 60 61 60 58 57 56 55 56 56 57 59 60 62 63 65 66 67 68 69 70 70 70 69 69 68 67 66 66 65 61 59 63 67 66 67 69 71 74 77 79 80 79 80 82 84 86 89 90 91 92 92 93 94 95 96 97 98 100 102 105 106 106 105 106 107 107 106 106
35 37 38 40 41 42 43 43 42 42 43 44 46 48 51 53 55 57 58 59 57 56 54 52 52 52 53 55 57 58 60 62 64 65 66 67 67 67 66 66 66 66 66 65 65 65 64 63 62 59 55 58 61 61 62 66 69 73 75 77 78 78 79 80 83 85 86 87 89 90 92 93 94 95 96 97 99 100 102 105 106 105 105 105 106 106 105 104
37 38 39 40 40 40 40 40 41 42 44 46 48 51 53 55 56 56 55 53 51 49 49 49 50 52 54 56 59 61 62 63 64 64 63 63 62 62 62 61 61 61 62 62 62 64 63 62 61 59 55 55 58 58 58 62 66 70 73 75 77 79 79 81 83 85 85 86 88 90 92 93 95 96 97 97 98 99 100 103 105 104 104 103 103 102 101 99
37 38 38 37 38 38 38 40 42 44 46 48 50 52 53 54 53 51 48 47 46 46 47 48 50 53 55 57 58 58 58 58 58 57 57 57 58 59 60 60 61 61 61 61 62 63 64 63 63 63 58 56 58 58 57 60 64 68 72 75 78 80 81 82 82 83 83 86 88 90 92 94 96 98 99 98 98 97 98 100 102 103 102 100 98 97 95 94
Wind_Direction
250 251 252 253 254 255 256 258 259 260 261 262 263 264 265 266 267 269 270 272 273 275 276 277 278 279 279 280 280 281 282 282 282 282 281 280 278 276 274 273 271 270 266 260 252 241 226 208 190 176 168 164 161 159 160 165 171 178 185 194 203 216 228 238 248 256 262 268 272 274 276 277 279 281 283 284 285 287 288 288 289 290 290 291 292 293 294 295
253 254 255 256 257 258 259 260 261 262 263 264 264 265 266 268 269 270 271 273 274 275 276 276 277 278 279 280 280 281 281 281 280 279 277 276 274 271 270 267 263 255 244 230 213 195 178 167 160 157 155 154 156 159 164 169 177 185 194 205 218 231 242 252 259 265 269 272 276 278 280 281 282 284 286 288 289 290 290 291 291 292 292 293 294 295 296 296
257 257 258 259 260 261 262 263 264 265 265 265 266 267 268 269 270 271 272 273 274 275 276 276 277 278 278 279 279 279 279 277 276 274 272 270 268 264 258 248 233 215 199 183 170 162 156 153 151 151 152 154 159 164 169 175 185 197 208 222 235 245 253 260 265 270 274 276 279 281 283 285 286 287 288 290 291 292 292 293 293 293 294 295 295 295 296 296
260 260 261 262 263 264 264 265 266 266 266 266 267 268 269 270 271 271 272 273 274 274 275 276 276 277 277 277 276 275 274 272 269 267 264 260 253 241 222 200 183 171 161 155 152 150 149 149 149 151 155 160 164 169 176 184 199 216 226 239 248 256 262 267 271 275 278 280 282 284 286 287 289 290 291 291 292 292 292 293 293 294 294 294 295 295 295 295
262 263 264 264 265 265 265 265 266 266 266 267 268 268 269 270 271 272 272 273 273 274 274 275 275 274 273 272 271 269 267 263 258 251 241 224 204 186 171 161 155 151 148 146 147 147 148 150 152 155 160 164 169 176 188 200 216 233 242 250 257 263 268 271 275 278 281 283 284 285 287 288 289 290 292 292 292 293 293 293 294 294 295 295 295 296 296 296
264 265 266 266 266 267 266 266 266 267 267 267 268 268 269 270 270 271 271 272 272 272 272 271 270 270 268 266 263 259 253 244 229 208 186 169 159 153 148 146 146 145 145 145 146 148 151 154 157 160 165 171 179 191 206 220 234 245 254 259 264 269 273 276 279 281 283 285 287 288 289 290 291 291 292 294 294 295 295 296 296 296 297 297 297 298 299 299
267 267 267 267 267 267 267 267 266 267 267 267 268 268 269 269 269 269 269 269 269 268 266 264 263 260 257 252 244 230 214 196 178 163 154 148 145 143 143 143 144 144 146 148 150 152 155 157 161 166 172 183 196 212 227 239 248 255 262 267 271 275 278 281 284 286 288 290 291 292 292 294 294 293 294 295 296 297 297 298 299 299 299 299 300 300 301 301
267 267 267 267 267 267 267 266 267 267 267 267 267 267 267 267 267 266 265 263 261 258 255 251 245 237 227 212 196 179 165 156 150 146 143 142 142 142 143 144 146 148 150 151 153 155 158 161 167 176 188 203 218 232 242 251 258 263 269 273 276 280 283 285 288 290 291 293 294 293 293 295 296 295 296 297 297 298 299 299 300 300 300 301 301 301 301 302
268 268 268 267 267 266 266 265 265 265 265 264 264 263 263 261 259 256 253 249 244 239 232 222 208 192 178 167 158 149 145 143 142 142 141 142 143 144 145 146 148 149 151 152 154 158 163 170 181 196 211 226 238 247 255 262 268 272 276 279 282 284 286 288 289 291 292 293 294 294 294 295 296 296 297 298 298 299 300 300 300 300 300 301 301 301 301 302
269 268 267 265 264 263 263 262 261 260 259 258 256 254 250 246 241 235 230 223 213 202 189 177 166 157 150 146 142 140 140 141 141 142 142 143 145 146 146 147 148 148 149 152 156 164 175 190 208 224 237 247 255 262 268 273 277 281 283 286 288 289 290 291 292 293 294 295 296 296 295 295 296 296 297 298 298 300 301 300 300 300 300 301 301 301 301 302
267 265 263 261 260 258 256 254 251 249 245 241 236 230 224 218 211 202 192 182 171 162 155 149 144 141 139 139 139 140 141 141 142 143 143 144 144 144 143 143 144 145 148 153 164 182 203 222 239 250 259 266 271 276 280 283 286 288 289 291 292 293 294 295 295 296 296 297 298 298 297 296 296 296 297 298 298 300 301 300 300 300 300 301 301 301 301 302
262 259 256 253 250 246 242 237 231 225 219 214 207 200 192 183 173 165 157 151 146 143 140 138 137 137 138 139 140 141 141 140 141 141 141 140 139 138 137 138 139 142 150 165 191 220 240 253 262 269 275 279 283 286 289 291 292 294 295 296 296 297 297 296 296 297 297 298 298 299 298 297 296 295 296 297 299 300 300 300 299 299 300 301 301 301 302 302
252 246 241 236 231 225 218 211 202 195 188 180 173 165 158 153 148 143 140 138 136 135 135 135 136 137 138 138 139 139 138 137 136 136 135 133 132 130 130 133 137 149 172 209 239 255 266 274 279 283 287 290 292 294 295 296 297 298 298 298 298 297 297 296 296 296 296 297 297 298 299 298 298 296 295 296 298 300 301 300 300 300 300 300 301 301 302 302
213 198 189 186 183 179 175 169 164 159 154 149 146 143 140 137 136 135 134 133 133 134 134 135 136 135 134 135 135 135 133 132 131 130 129 127 125 124 126 134 151 203 250 267 276 281 286 289 291 293 294 296 296 296 297 297 297 297 296 296 296 296 297 297 297 297 298 299 299 299 300 299 299 298 297 296 297 299 300 301 301 301 301 300 300 301 302 302
133 131 132 135 137 139 141 141 140 139 138 136 135 134 133 132 132 132 132 132 132 133 133 134 134 131 129 131 131 129 127 126 124 121 121 119 120 121 126 159 272 285 290 292 293 294 294 294 294 295 295 295 294 294 295 295 294 294 294 293 293 294 295 297 298 298 299 300 299 300 302 301 299 298 298 298 298 298 299 299 300 301 302 302 302 302 302 302
115 115 117 120 122 125 128 130 130 131 131 130 130 130 129 130 130 131 131 131 131 131 131 131 129 126 124 126 124 120 118 115 113 112 110 109 105 88 315 300 298 297 295 294 293 293 293 292 292 292 293 293 292 292 292 293 292 292 292 293 293 293 295 296 298 299 300 301 300 300 302 302 299 298 299 299 298 298 297 297 298 299 300 301 302 302 302 302
113 114 116 117 119 121 123 124 125 125 125 125 126 126 127 129 129 130 130 130 130 129 127 125 123 119 117 116 113 110 108 104 102 99 95 82 12 308 299 295 293 290 289 289 290 290 291 290 290 290 290 290 291 291 291 292 292 292 293 294 295 296 296 296 297 298 298 300 299 299 301 301 298 297 298 299 299 299 299 299 299 298 299 300 300 301 301 300
114 116 117 118 119 120 121 121 121 122 122 123 124 125 126 127 128 127 127 127 126 124 120 117 115 112 110 109 108 107 107 108 109 109 122 224 275 277 278 282 284 286 287 289 290 291 290 290 289 290 290 289 289 289 290 291 292 293 294 295 296 297 297 296 296 296 297 298 298 298 299 299 297 297 297 298 299 299 301 301 301 300 300 300 300 300 300 299
116 117 118 119 120 120 120 120 121 121 122 122 123 123 123 123 123 122 121 120 118 115 114 113 112 112 114 117 119 120 127 136 151 172 213 246 266 276 281 284 287 289 290 290 290 290 291 291 291 291 291 290 291 291 291 292 293 294 294 295 296 297 298 298 297 297 297 299 299 298 299 298 296 296 297 297 298 299 300 300 300 300 300 300 300 300 299 298
116 117 118 119 119 119 120 120 121 121 121 121 121 121 118 116 116 116 116 116 115 115 117 118 120 125 130 133 136 142 153 167 192 225 253 268 277 286 289 290 290 290 291 291 292 291 292 292 292 292 292 292 293 293 294 294 294 294 295 296 296 296 297 297 297 298 298 299 299 298 299 298 296 296 296 297 297 298 299 298 298 299 299 300 299 298 297 296
117 118 118 119 119 120 120 121 121 120 120 119 119 118 116 113 113 115 117 118 121 123 126 128 133 139 142 147 154 162 183 211 241 264 277 281 284 288 290 290 290 290 290 291 292 292 292 292 292 292 293 293 294 294 295 295 295 295 295 297 297 296 297 297 296 297 297 297 298 298 299 298 296 297 297 297 297 298 298 298 298 299 299 299 298 296 296 296
119 119 120 120 121 121 121 121 120 119 118 118 118 117 117 116 117 119 123 126 128 131 132 136 143 149 155 167 185 207 240 262 272 280 285 285 285 286 288 289 289 289 290 290 291 292 292 292 293 293 294 294 295 296 296 296 295 295 296 296 296 295 296 297 297 298 297 296 297 297 299 298 297 297 297 297 297 298 298 299 299 299 299 299 298 298 298 298
120 121 121 122 122 121 121 120 119 119 119 120 120 120 120 122 123 125 129 132 133 134 135 142 154 168 189 223 250 264 275 281 283 284 285 286 286 287 288 289 290 290 290 291 291 292 293 293 293 294 294 295 295 295 296 297 296 295 295 296 296 296 296 296 297 298 298 297 296 297 298 298 296 296 296 296 296 297 298 299 299 299 299 299 299 299 299 298
121 122 122 122 122 121 121 121 121 121 122 123 123 123 125 127 127 128 132 135 138 142 147 160 185 219 254 267 276 281 283 286 286 286 287 288 289 290 291 291 291 291 291 291 292 292 292 293 293 293 294 294 295 295 295 296 297 297 297 296 296 296 296 296 296 296 297 297 297 297 298 298 296 296 296 296 297 298 298 298 297 297 298 298 298 298 297 297
122 122 122 122 122 122 123 123 124 124 125 125 124 125 129 130 130 131 134 139 149 169 189 221 242 260 271 274 280 283 285 287 287 288 289 290 291 292 293 292 292 292 291 291 292 292 292 293 294 294 294 294 295 296 296 296 297 298 298 298 298 297 297 297 297 296 297 297 296 296 297 296 296 296 295 295 296 297 297 296 296 297 297 297 296 296 295 295
122 122 122 123 123 123 124 125 125 127 126 125 127 131 134 135 136 138 146 162 194 226 243 258 266 272 276 277 282 285 286 288 289 290 291 291 291 291 292 291 291 291 291 291 292 292 293 293 294 294 295 296 296 297 297 297 297 297 297 298 298 298 298 297 297 297 297 296 296 296 295 295 295 295 294 294 295 295 295 295 296 297 296 296 295 295 294 295
121 122 122 122 123 124 125 125 127 128 126 128 133 140 145 147 153 168 195 227 249 260 265 270 274 278 280 282 284 286 289 289 290 290 290 290 291 291 291 292 291 291 291 292 292 292 293 294 295 296 297 297 297 297 297 297 297 297 297 298 298 298 298 298 298 298 297 297 296 296 296 296 296 296 295 296 297 297 297 297 297 297 297 296 296 295 295 295
122 122 122 123 124 125 126 128 131 131 131 136 146 156 169 181 202 228 245 259 268 272 275 278 280 283 285 287 288 288 289 290 290 290 290 290 291 291 292 292 293 293 293 293 294 295 296 297 298 298 298 298 298 298 298 298 298 298 298 298 298 298 298 298 298 298 298 298 298 298 297 298 297 296 296 297 298 299 299 299 298 297 297 296 296 295 295 295
124 125 125 127 129 131 133 136 138 140 143 152 168 190 213 231 247 257 264 270 275 278 281 283 285 287 288 289 290 290 290 290 290 291 291 292 292 293 294 295 295 296 297 297 297 297 298 298 298 299 300 300 300 300 299 299 299 299 299 299 299 298 299 299 299 300 300 300 299 299 299 298 297 296 296 298 298 298 298 297 296 296 295 295 295 295 294 294
129 130 132 134 137 140 143 148 152 158 168 184 210 234 249 257 264 270 275 278 281 283 285 286 287 288 288 289 289 290 290 291 292 293 293 294 295 295 296 297 297 297 298 298 298 299 300 301 301 302 302 302 301 301 300 300 299 299 299 299 299 300 300 300 301 301 301 300 300 300 299 299 298 297 298 298 297 296 295 295 295 294 294 294 294 293 293 293
137 139 142 145 149 154 160 168 178 192 209 227 244 255 264 270 274 278 281 283 284 285 286 287 288 288 288 289 290 290 291 292 293 294 295 295 296 297 298 299 300 301 302 302 303 303 303 304 303 303 302 302 301 301 300 300 300 300 300 300 300 299 299 299 300 300 300 299 299 299 298 298 297 297 297 297 296 295 294 294 293 293 293 292 292 292 293 293
147 151 156 162 169 177 188 203 217 231 244 254 262 269 273 277 281 283 284 285 286 287 288 288 288 289 289 291 292 293 294 295 295 296 297 298 299 300 300 302 303 304 304 304 304 303 303 303 303 302 302 301 301 301 301 301 301 301 301 300 299 298 298 297 297 297 297 297 297 297 296 295 295 296 295 295 294 294 294 293 293 293 293 293 293 293 293 293
164 170 179 189 201 215 226 238 248 256 264 270 274 278 280 282 284 285 286 287 287 288 289 290 291 292 293 293 294 295 296 297 298 299 300 300 301 301 301 301 301 301 301 301 301 301 301 302 302 302 302 301 301 300 299 299 299 299 299 298 298 297 297 297 296 296 296 295 295 295 295 294 294 294 294 294 294 293 294 294 294 293 293 292 292 292 292 292
187 197 209 222 236 247 256 263 269 274 277 280 282 283 285 285 286 287 288 289 290 291 292 293 294 295 296 297 298 298 299 300 301 301 302 302 303 303 303 303 303 302 302 302 301 301 301 301 301 300 300 300 299 299 299 299 299 299 299 299 299 299 299 299 298 298 297 297 296 296 296 295 294 294 295 295 294 294 293 293 292 292 291 291 291 290 290 290
218 230 242 252 260 268 273 277 280 283 284 285 286 286 287 288 289 290 291 292 294 295 296 297 298 299 299 300 301 302 302 303 303 304 304 304 303 303 303 303 303 303 303 302 302 302 302 301 301 301 300 300 300 301 301 301 301 301 301 301 300 300 300 300 300 300 300 300 300 301 301 300 299 299 299 299 298 298 297 295 294 294 293 293 292 292 291 290
246 255 264 270 275 279 282 284 285 286 286 287 287 288 290 291 293 294 295 296 297 298 299 300 301 302 303 304 304 304 304 305 304 304 304 304 304 303 303 303 302 302 302 301 301 301 302 302 302 303 303 303 303 303 303 303 302 302 302 301 301 301 301 301 302 303 303 303 304 304 304 302 301 302 303 302 302 301 301 300 299 297 296 295 294 293 292 291
265 271 276 280 282 284 285 285 286 287 288 289 290 292 293 295 297 298 299 300 301 302 303 304 305 305 306 306 306 306 305 305 305 304 304 304 304 303 303 302 302 302 302 302 302 303 303 303 304 304 304 304 304 303 303 303 302 302 302 302 302 302 304 304 305 304 304 304 304 305 306 304 302 303 303 303 303 302 302 301 299 298 297 296 295 295 294 294
273 277 280 282 283 284 285 286 288 290 291 293 295 297 298 299 300 301 303 304 305 305 306 306 307 307 307 306 306 306 305 305 305 305 304 304 304 303 303 303 303 303 304 305 305 305 305 304 304 304 304 304 303 303 303 303 303 304 304 304 304 305 306 307 307 306 306 305 304 306 307 306 304 304 304 303 303 303 302 302 302 301 300 300 299 299 299 299
275 277 280 282 283 285 287 290 292 294 296 298 299 301 302 303 304 305 306 306 307 307 308 307 307 307 306 306 305 305 305 305 305 305 304 304 304 304 305 305 306 306 307 307 307 306 306 305 305 305 305 305 305 305 305 306 306 306 306 306 307 307 309 310 309 308 308 307 306 306 309 309 308 306 306 306 306 306 306 306 306 306 306 306 305 305 305 305
277 280 282 285 287 290 292 295 297 299 300 301 302 304 304 305 306 307 307 308 308 308 307 307 306 306 306 305 305 305 305 305 305 305 305 305 306 307 307 308 308 308 307 307 306 306 306 307 306 307 307 307 307 308 308 308 308 308 307 307 308 309 310 311 310 310 309 308 307 307 310 313 311 310 310 310 310 310 310 309 309 310 310 310 310 310 309 309
282 285 287 290 292 294 296 298 300 301 302 304 305 306 307 307 308 308 308 308 308 307 307 306 306 306 307 307 307 306 306 306 306 306 307 308 309 309 309 308 308 307 307 307 307 308 308 308 309 309 309 309 309 309 310 310 310 309 309 309 309 310 311 311 310 309 309 309 309 310 313 316 315 313 313 312 312 312 311 310 310 311 310 310 310 310 310 309
287 290 292 293 296 297 299 301 302 303 305 306 307 307 308 308 308 308 308 307 307 307 307 307 307 307 307 307 307 307 307 308 309 309 309 309 309 308 308 308 308 308 309 309 309 309 310 310 310 311 311 311 311 311 312 312 311 311 311 310 311 312 313 313 311 310 310 311 312 314 315 317 316 313 312 313 313 312 311 311 311 310 310 310 310 309 308 307
292 293 295 297 298 300 302 303 304 305 306 307 307 308 308 307 307 307 307 307 307 308 308 308 308 308 308 308 309 309 309 310 310 310 309 309 309 309 310 310 311 311 311 311 311 311 311 311 311 311 311 311 312 313 314 314 314 313 313 312 313 314 315 314 313 313 313 314 314 315 316 317 316 311 310 311 311 310 309 308 308 308 308 309 308 307 306 305
294 296 298 299 301 302 303 304 305 306 307 307 307 307 307 307 307 307 308 309 309 309 309 309 309 309 310 310 310 310 310 310 310 310 310 311 312 312 312 313 313 313 313 313 313 313 313 313 313 313 312 310 310 311 312 313 314 314 313 314 315 316 316 315 315 315 315 315 316 316 316 316 314 308 307 308 307 306 305 304 304 304 305 306 306 305 303 302
296 297 299 300 302 303 304 305 305 306 306 306 307 307 307 308 309 309 310 310 310 310 310 310 310 311 310 310 310 310 310 311 312 313 314 314 315 314 314 314 314 314 314 314 315 315 315 315 316 316 315 313 314 315 315 316 316 315 314 315 316 317 317 315 315 315 314 315 316 315 313 314 311 306 305 305 303 302 301 300 300 301 302 302 302 301 300 300
298 300 301 302 303 304 305 305 306 306 307 307 308 308 309 310 310 311 311 311 310 310 311 311 311 311 311 312 313 313 314 315 316 317 317 316 316 315 315 315 315 316 316 316 317 316 317 317 318 320 319 319 320 322 321 320 318 316 315 316 316 316 314 313 313 313 312 313 314 312 310 309 307 304 303 303 301 300 300 299 299 300 300 299 299 298 298 298
300 302 303 304 304 305 306 306 307 307 308 309 309 310 311 311 311 311 311 311 311 311 312 312 312 313 314 315 316 317 318 318 319 319 318 318 318 318 318 318 318 318 319 319 319 319 319 321 322 324 322 320 321 322 320 319 317 315 315 315 314 313 311 311 311 310 310 312 312 310 307 306 305 304 303 302 301 300 300 299 300 300 300 299 298 297 297 297
302 303 304 304 305 306 306 307 307 308 309 310 311 311 311 311 311 311 311 311 312 312 313 314 315 316 317 318 319 319 320 320 320 320 321 321 320 320 321 321 321 322 323 323 322 322 322 323 323 324 322 319 320 320 319 317 316 314 314 313 313 312 311 310 310 310 310 310 310 309 307 306 306 305 304 303 302 301 301 300 301 301 300 299 299 298 298 297
303 304 304 305 306 306 307 308 309 310 310 311 311 311 311 311 311 311 312 313 314 314 316 317 318 319 319 320 320 320 321 321 322 323 323 323 323 323 324 324 324 324 324 323 322 322 322 322 321 322 321 318 318 319 318 317 315 313 313 313 313 313 313 312 311 310 310 309 309 308 307 307 306 305 305 304 303 302 301 301 301 301 300 299 299 298 298 298
304 305 305 305 306 307 308 309 310 311 311 311 311 311 311 312 312 313 314 315 317 318 319 320 320 321 321 321 322 324 325 326 326 327 327 327 326 325 325 324 323 323 322 322 321 320 321 321 320 320 320 318 317 318 318 317 316 315 314 314 314 314 313 311 309 309 309 309 308 307 307 306 306 305 304 303 303 302 301 301 301 300 300 299 299 298 298 298
304 304 305 306 306 308 309 310 310 311 311 311 312 312 312 313 315 316 317 318 319 320 321 321 322 322 324 326 328 330 331 331 330 330 329 327 325 324 323 323 322 323 324 324 324 324 324 324 322 320 320 319 317 318 318 317 317 317 316 314 313 312 310 310 309 310 310 310 308 307 306 306 305 304 303 302 302 302 301 301 301 300 300 299 299 299 299 299
303 304 306 307 308 309 309 310 311 311 312 312 313 313 314 316 317 319 320 320 321 321 322 323 325 327 329 331 332 333 333 332 330 329 328 327 326 326 327 328 328 329 331 331 330 329 328 327 325 322 322 321 319 319 320 319 318 316 315 313 312 311 311 310 310 311 311 310 309 307 306 306 305 304 304 304 303 303 303 302 302 302 301 302 302 303 304 304
Height
10706 10707 10707 10708 10709 10710 10711 10712 10712 10713 10714 10715 10714 10714 10713 10713 10713 10713 10712 10712 10712 10711 10711 10710 10709 10708 10708 10707 10706 10705 10705 10704 10703 10701 10701 10699 10699 10698 10697 10697 10697 10696 10696 10696 10696 10696 10697 10697 10697 10698 10699 10699 10700 10701 10701 10702 10703 10704 10704 10704 10704 10705 10705 10704 10704 10704 10703 10703 10703 10702 10701 10701 10700 10699 10698 10697 10696 10695 10694 10693 10692 10691 10690 10688 10686 10685 10684 10682
10703 10704 10704 10705 10706 10707 10707 10708 10708 10709 10710 10710 10710 10709 10708 10709 10709 10708 10708 10707 10707 10707 10706 10705 10704 10704 10703 10702 10701 10700 10700 10699 10698 10697 10696 10695 10695 10695 10694 10694 10694 10694 10694 10695 10695 10696 10696 10697 10698 10698 10699 10700 10701 10701 10702 10703 10703 10704 10704 10704 10704 10704 10704 10704 10703 10703 10702 10702 10701 10701 10700 10699 10698 10697 10696 10695 10693 10692 10691 10690 10689 10688 10687 10685 10683 10681 10680 10678
10700 10700 10700 10701 10702 10703 10704 10704 10704 10705 10706 10705 10704 10704 10704 10704 10704 10703 10703 10703 10702 10702 10701 10700 10700 10699 10698 10698 10697 10696 10695 10694 10694 10693 10693 10693 10692 10692 10692 10692 10693 10693 10694 10694 10695 10696 10697 10697 10698 10699 10700 10701 10701 10702 10703 10703 10703 10704 10704 10704 10704 10703 10703 10703 10703 10702 10701 10701 10700 10699 10698 10697 10695 10694 10693 10692 10690 10689 10688 10686 10685 10684 10683 10681 10679 10677 10676 10674
10696 10696 10696 10697 10698 10699 10700 10700 10700 10700 10700 10699 10699 10699 10699 10699 10698 10698 10698 10698 10697 10697 10696 10696 10695 10695 10694 10693 10692 10692 10691 10691 10691 10691 10691 10691 10691 10691 10691 10692 10693 10693 10694 10695 10696 10697 10697 10698 10699 10700 10701 10701 10702 10702 10702 10703 10703 10703 10703 10703 10703 10703 10703 10702 10702 10701 10700 10699 10698 10697 10696 10694 10693 10691 10690 10689 10687 10686 10684 10683 10681 10680 10678 10677 10675 10673 10671 10669
10692 10692 10693 10693 10694 10695 10695 10695 10694 10694 10694 10694 10694 10694 10694 10694 10694 10694 10693 10693 10692 10692 10692 10691 10691 10690 10690 10689 10689 10689 10689 10689 10689 10689 10690 10690 10691 10691 10692 10693 10693 10694 10695 10696 10697 10698 10699 10699 10700 10700 10701 10701 10702 10702 10702 10703 10703 10703 10703 10703 10703 10702 10702 10701 10700 10699 10698 10697 10696 10694 10693 10692 10690 10688 10686 10685 10683 10682 10680 10679 10677 10675 10673 10672 10671 10668 10666 10664
10688 10688 10688 10689 10689 10689 10689 10689 10688 10688 10689 10689 10689 10689 10689 10689 10689 10688 10688 10688 10688 10688 10688 10687 10687 10687 10687 10687 10687 10687 10688 10688 10688 10689 10689 10690 10691 10692 10693 10694 10695 10695 10696 10697 10698 10698 10699 10700 10700 10701 10701 10701 10702 10702 10702 10703 10703 10703 10703 10702 10702 10701 10700 10699 10698 10697 10696 10695 10693 10692 10690 10689 10687 10685 10684 10681 10679 10678 10676 10674 10672 10670 10669 10667 10665 10663 10661 10658
10683 10683 10683 10684 10684 10684 10683 10683 10683 10683 10684 10684 10684 10684 10684 10684 10684 10684 10684 10684 10684 10684 10684 10684 10684 10685 10685 10686 10686 10687 10688 10688 10689 10689 10690 10691 10692 10693 10694 10695 10696 10697 10697 10698 10699 10699 10700 10700 10701 10701 10702 10702 10702 10703 10703 10703 10703 10702 10702 10701 10701 10700 10699 10698 10696 10695 10694 10692 10690 10689 10687 10686 10683 10681 10680 10678 10675 10674 10672 10669 10667 10664 10663 10661 10659 10657 10655 10652
10679 10679 10679 10679 10679 10678 10678 10678 10678 10678 10678 10678 10679 10679 10679 10679 10679 10680 10680 10680 10681 10681 10681 10682 10683 10684 10685 10685 10686 10687 10688 10689 10690 10691 10691 10692 10694 10695 10696 10697 10697 10698 10699 10699 10700 10700 10701 10701 10702 10702 10702 10703 10703 10703 10703 10703 10702 10702 10701 10700 10699 10698 10697 10695 10694 10693 10691 10690 10688 10685 10684 10683 10680 10676 10676 10674 10671 10669 10668 10665 10663 10660 10657 10656 10654 10651 10650 10648
10674 10674 10673 10673 10673 10673 10673 10673 10673 10673 10673 10674 10674 10675 10675 10676 10676 10677 10677 10678 10678 10679 10680 10681 10682 10683 10684 10685 10686 10688 10689 10690 10692 10693 10693 10694 10695 10696 10697 10698 10699 10700 10700 10701 10701 10702 10702 10702 10703 10703 10703 10703 10703 10703 10703 10702 10701 10700 10700 10698 10697 10696 10695 10693 10692 10690 10688 10687 10685 10681 10679 10679 10677 10672 10670 10670 10666 10664 10662 10660 10658 10655 10652 10650 10648 10645 10643 10641
10669 10669 10668 10668 10668 10668 10668 10668 10669 10669 10670 10670 10671 10672 10672 10673 10673 10674 10675 10677 10678 10679 10680 10681 10683 10684 10685 10687 10688 10689 10691 10692 10693 10695 10695 10696 10697 10698 10699 10700 10701 10701 10702 10702 10703 10703 10703 10704 10704 10704 10704 10703 10703 10703 10702 10701 10700 10699 10698 10697 10695 10694 10693 10691 10690 10688 10685 10684 10682 10677 10674 10674 10674 10668 10665 10664 10662 10659 10656 10654 10652 10649 10646 10644 10641 10638 10636 10633
10665 10664 10664 10664 10664 10664 10665 10665 10666 10666 10667 10668 10668 10669 10670 10671 10673 10674 10675 10677 10678 10680 10681 10682 10684 10685 10687 10689 10690 10691 10693 10694 10695 10697 10698 10699 10700 10701 10702 10702 10703 10703 10704 10704 10704 10704 10705 10705 10705 10704 10704 10704 10703 10702 10701 10700 10699 10698 10697 10695 10693 10692 10691 10689 10687 10685 10682 10681 10680 10675 10667 10666 10669 10665 10660 10658 10657 10656 10651 10647 10644 10642 10640 10637 10634 10631 10628 10626
10661 10661 10661 10661 10661 10662 10662 10663 10663 10664 10665 10666 10667 10669 10670 10672 10673 10675 10676 10678 10679 10681 10683 10684 10686 10687 10689 10691 10693 10694 10696 10697 10699 10700 10701 10702 10703 10704 10704 10705 10705 10705 10705 10706 10706 10706 10706 10706 10705 10705 10704 10703 10702 10701 10700 10699 10697 10696 10695 10693 10691 10689 10688 10686 10684 10682 10679 10677 10675 10673 10664 10656 10661 10662 10657 10653 10652 10650 10647 10641 10637 10635 10633 10630 10626 10623 10620 10618
10659 10659 10659 10659 10660 10660 10661 10662 10663 10664 10665 10666 10668 10669 10671 10673 10674 10676 10678 10680 10681 10683 10685 10687 10689 10691 10692 10694 10696 10698 10699 10700 10702 10703 10704 10705 10705 10706 10706 10707 10707 10707 10707 10707 10707 10707 10706 10706 10705 10704 10704 10702 10701 10700 10699 10697 10696 10694 10692 10691 10688 10686 10684 10683 10681 10678 10676 10673 10670 10671 10664 10649 10647 10653 10652 10649 10647 10645 10640 10634 10630 10627 10626 10624 10621 10618 10614 10610
10658 10658 10658 10659 10660 10660 10661 10662 10663 10665 10666 10668 10669 10671 10672 10674 10676 10678 10680 10682 10684 10687 10688 10690 10692 10694 10696 10698 10700 10701 10702 10704 10705 10706 10706 10707 10708 10708 10708 10709 10709 10709 10708 10708 10708 10707 10706 10706 10705 10703 10702 10701 10700 10698 10697 10695 10694 10692 10690 10688 10686 10683 10680 10678 10676 10673 10671 10669 10664 10665 10664 10649 10637 10638 10642 10642 10642 10641 10636 10628 10622 10619 10618 10616 10614 10613 10610 10604
10658 10659 10659 10660 10661 10662 10663 10664 10665 10666 10668 10669 10671 10673 10675 10677 10679 10681 10683 10686 10688 10690 10693 10695 10696 10698 10700 10702 10703 10704 10706 10707 10707 10708 10709 10709 10710 10710 10710 10710 10710 10709 10709 10708 10707 10707 10706 10704 10703 10702 10701 10699 10697 10696 10695 10693 10691 10689 10687 10685 10683 10681 10678 10674 10671 10669 10667 10665 10660 10657 10658 10649 10634 10628 10629 10632 10634 10635 10632 10626 10619 10613 10609 10606 10604 10605 10604 10599
10660 10661 10661 10662 10663 10664 10666 10667 10668 10670 10671 10673 10675 10677 10679 10681 10683 10685 10688 10690 10692 10694 10696 10699 10700 10701 10704 10705 10706 10708 10709 10710 10710 10711 10711 10711 10711 10711 10711 10710 10710 10709 10708 10707 10706 10705 10704 10703 10701 10700 10699 10697 10695 10693 10691 10690 10688 10686 10683 10681 10679 10677 10674 10672 10668 10664 10662 10660 10655 10652 10652 10646 10631 10623 10621 10620 10623 10625 10625 10623 10619 10613 10607 10601 10597 10595 10595 10592
10662 10663 10664 10665 10667 10668 10670 10671 10673 10674 10676 10678 10680 10682 10684 10686 10688 10690 10692 10694 10696 10698 10700 10702 10704 10705 10707 10709 10710 10711 10711 10712 10712 10712 10712 10712 10712 10711 10711 10710 10709 10708 10707 10706 10704 10703 10702 10701 10699 10698 10696 10694 10692 10690 10688 10686 10684 10682 10680 10676 10674 10672 10670 10668 10665 10661 10659 10656 10651 10646 10647 10641 10627 10620 10616 10613 10612 10613 10612 10614 10612 10609 10605 10599 10593 10589 10586 10582
10665 10667 10668 10669 10671 10672 10674 10676 10678 10680 10682 10683 10686 10688 10690 10692 10693 10695 10697 10699 10701 10702 10704 10706 10708 10709 10710 10711 10712 10712 10713 10713 10713 10713 10712 10711 10711 10710 10709 10708 10707 10706 10705 10704 10703 10702 10700 10698 10697 10695 10693 10691 10689 10687 10685 10683 10680 10678 10676 10673 10671 10667 10664 10662 10661 10657 10655 10652 10646 10641 10641 10634 10621 10615 10612 10608 10606 10604 10602 10601 10600 10597 10595 10592 10587 10582 10576 10571
10670 10671 10672 10674 10675 10677 10678 10680 10682 10685 10687 10689 10691 10693 10696 10698 10700 10701 10703 10704 10706 10707 10708 10709 10710 10711 10712 10712 10712 10712 10713 10712 10712 10712 10711 10710 10710 10709 10708 10707 10706 10705 10704 10702 10701 10699 10697 10695 10694 10692 10690 10688 10685 10683 10681 10679 10676 10674 10672 10669 10667 10665 10659 10655 10653 10651 10649 10647 10639 10634 10634 10625 10614 10610 10606 10603 10600 10598 10597 10594 10589 10587 10585 10583 10578 10572 10566 10560
10675 10676 10677 10679 10680 10682 10684 10685 10687 10690 10692 10694 10696 10698 10700 10703 10705 10706 10707 10708 10709 10710 10711 10711 10712 10712 10712 10712 10712 10712 10712 10712 10712 10711 10711 10710 10709 10708 10707 10706 10705 10703 10702 10700 10698 10696 10694 10692 10690 10688 10686 10684 10681 10678 10676 10674 10672 10670 10668 10665 10662 10660 10657 10650 10646 10644 10641 10640 10633 10627 10626 10616 10605 10603 10601 10597 10593 10591 10591 10587 10581 10578 10577 10575 10570 10562 10555 10550
10679 10681 10682 10684 10686 10687 10689 10691 10693 10695 10697 10699 10701 10703 10704 10706 10709 10710 10711 10711 10711 10712 10712 10712 10712 10713 10713 10713 10712 10712 10712 10712 10712 10711 10711 10710 10709 10707 10706 10704 10702 10701 10699 10697 10695 10693 10691 10689 10686 10684 10682 10679 10677 10674 10671 10669 10667 10665 10663 10660 10655 10653 10651 10644 10640 10638 10634 10633 10629 10621 10619 10609 10595 10593 10592 10588 10585 10583 10581 10576 10573 10570 10567 10563 10556 10551 10545 10540
10684 10685 10687 10689 10691 10692 10694 10696 10698 10700 10701 10703 10705 10707 10707 10708 10710 10712 10713 10713 10713 10713 10713 10714 10714 10714 10714 10714 10713 10713 10713 10713 10712 10711 10710 10709 10707 10706 10704 10702 10700 10698 10696 10694 10692 10689 10687 10685 10682 10680 10677 10675 10673 10670 10667 10663 10661 10659 10657 10654 10650 10646 10645 10639 10633 10630 10624 10623 10622 10616 10612 10602 10588 10582 10581 10578 10575 10573 10572 10567 10563 10559 10555 10549 10541 10537 10533 10527
10689 10690 10692 10694 10695 10697 10699 10700 10702 10704 10705 10707 10708 10709 10710 10711 10712 10713 10714 10715 10715 10715 10715 10715 10715 10715 10715 10715 10714 10714 10713 10712 10711 10710 10709 10707 10705 10703 10701 10699 10697 10695 10692 10690 10688 10686 10683 10680 10678 10676 10673 10671 10669 10666 10663 10658 10654 10652 10651 10647 10643 10638 10636 10634 10629 10623 10615 10610 10610 10610 10607 10595 10582 10576 10570 10568 10567 10564 10563 10560 10555 10549 10544 10538 10530 10525 10521 10514
10694 10696 10697 10698 10700 10701 10703 10704 10706 10707 10708 10709 10710 10711 10713 10714 10714 10715 10716 10717 10717 10717 10717 10717 10716 10716 10715 10715 10714 10713 10712 10711 10710 10708 10707 10705 10703 10701 10698 10696 10694 10691 10689 10686 10684 10681 10679 10676 10674 10672 10669 10666 10664 10661 10658 10655 10648 10644 10642 10639 10636 10631 10626 10624 10622 10619 10611 10601 10596 10599 10600 10587 10574 10570 10562 10557 10559 10557 10553 10550 10546 10542 10537 10531 10524 10516 10509 10503
10699 10700 10702 10703 10704 10706 10707 10708 10709 10710 10712 10712 10713 10715 10716 10716 10717 10717 10718 10718 10718 10718 10717 10717 10716 10716 10715 10714 10713 10712 10711 10709 10708 10706 10704 10702 10700 10698 10695 10692 10690 10687 10684 10682 10680 10677 10675 10672 10670 10667 10664 10661 10659 10656 10652 10650 10645 10638 10634 10630 10626 10622 10617 10613 10610 10608 10605 10597 10587 10587 10591 10582 10568 10563 10555 10550 10553 10551 10545 10540 10535 10533 10529 10523 10516 10508 10500 10493
10704 10705 10706 10707 10708 10710 10711 10712 10713 10714 10715 10715 10716 10717 10718 10718 10718 10719 10719 10719 10718 10718 10717 10717 10716 10715 10714 10713 10712 10710 10709 10708 10706 10704 10702 10699 10697 10694 10692 10689 10686 10683 10681 10678 10676 10673 10671 10668 10666 10662 10659 10656 10653 10650 10646 10642 10639 10633 10627 10622 10617 10613 10608 10604 10599 10596 10593 10588 10581 10576 10577 10575 10565 10553 10546 10544 10545 10542 10535 10531 10527 10522 10517 10510 10503 10496 10490 10483
10708 10709 10710 10711 10712 10713 10714 10715 10716 10717 10717 10718 10719 10719 10719 10719 10719 10719 10719 10719 10718 10718 10717 10716 10715 10714 10713 10712 10710 10709 10707 10705 10703 10701 10698 10696 10693 10691 10688 10685 10682 10679 10677 10674 10671 10669 10667 10663 10661 10657 10654 10650 10646 10643 10639 10635 10631 10626 10620 10615 10609 10604 10599 10594 10590 10585 10582 10577 10571 10566 10562 10562 10556 10542 10536 10537 10533 10528 10524 10519 10515 10509 10502 10495 10488 10483 10477 10473
10712 10713 10714 10715 10716 10716 10717 10718 10718 10719 10719 10720 10720 10720 10720 10720 10720 10719 10719 10719 10718 10717 10716 10715 10714 10713 10711 10710 10708 10707 10705 10702 10700 10697 10695 10693 10690 10688 10685 10682 10678 10675 10672 10670 10667 10664 10662 10659 10655 10652 10648 10643 10638 10634 10629 10625 10622 10617 10612 10606 10601 10596 10590 10585 10581 10575 10572 10566 10560 10555 10549 10548 10544 10529 10525 10530 10524 10516 10513 10506 10500 10494 10488 10482 10475 10470 10465 10460
10715 10716 10717 10717 10718 10718 10719 10719 10719 10720 10720 10720 10720 10720 10720 10720 10720 10719 10719 10718 10717 10716 10715 10714 10713 10711 10709 10708 10706 10704 10701 10699 10697 10694 10692 10689 10687 10684 10682 10678 10675 10671 10667 10663 10661 10659 10657 10653 10649 10646 10640 10634 10628 10624 10619 10615 10612 10607 10603 10597 10590 10586 10581 10575 10572 10566 10561 10554 10547 10543 10536 10533 10531 10519 10515 10522 10518 10509 10503 10495 10488 10481 10475 10470 10464 10458 10453 10448
10717 10718 10718 10719 10719 10720 10720 10720 10720 10720 10720 10721 10720 10720 10720 10720 10719 10719 10718 10717 10716 10715 10714 10712 10711 10709 10707 10705 10703 10701 10698 10697 10694 10691 10689 10686 10684 10681 10678 10675 10671 10668 10663 10658 10654 10652 10649 10645 10641 10637 10631 10625 10618 10612 10608 10604 10601 10597 10593 10589 10582 10577 10571 10565 10561 10557 10552 10544 10535 10532 10524 10516 10514 10507 10503 10507 10506 10500 10493 10485 10478 10471 10463 10457 10451 10445 10440 10437
10719 10720 10720 10720 10720 10720 10721 10721 10721 10721 10721 10721 10720 10720 10720 10719 10719 10718 10717 10716 10715 10714 10712 10710 10708 10706 10704 10702 10700 10698 10696 10694 10691 10688 10686 10683 10680 10677 10674 10671 10666 10661 10656 10649 10644 10641 10639 10635 10631 10627 10621 10616 10609 10601 10596 10592 10590 10586 10582 10579 10576 10571 10565 10559 10554 10548 10543 10535 10525 10523 10516 10505 10499 10495 10491 10490 10486 10483 10480 10474 10467 10460 10453 10445 10438 10433 10428 10424
10720 10721 10721 10721 10721 10721 10721 10721 10721 10721 10721 10721 10720 10720 10720 10719 10718 10717 10716 10715 10713 10712 10709 10708 10706 10704 10702 10700 10698 10695 10692 10690 10688 10685 10682 10679 10676 10673 10670 10667 10663 10658 10652 10645 10637 10632 10630 10627 10622 10618 10612 10607 10602 10594 10587 10582 10578 10574 10570 10567 10564 10561 10558 10554 10549 10544 10539 10530 10518 10513 10507 10497 10490 10484 10480 10478 10470 10465 10463 10459 10454 10447 10439 10433 10425 10419 10415 10410
10721 10721 10722 10722 10722 10722 10722 10722 10722 10721 10721 10721 10720 10720 10719 10718 10717 10716 10714 10713 10711 10709 10707 10705 10703 10701 10699 10697 10695 10692 10690 10687 10684 10681 10678 10674 10671 10668 10665 10662 10658 10655 10650 10644 10636 10628 10624 10621 10616 10610 10604 10597 10592 10587 10582 10577 10572 10567 10563 10558 10552 10548 10545 10542 10539 10536 10534 10526 10513 10505 10495 10487 10484 10475 10466 10464 10458 10452 10449 10443 10438 10433 10425 10420 10414 10408 10403 10397
10722 10722 10722 10722 10722 10722 10722 10722 10722 10722 10721 10721 10720 10719 10718 10716 10715 10714 10712 10710 10709 10707 10705 10703 10701 10698 10696 10693 10691 10688 10686 10683 10680 10677 10673 10669 10665 10661 10657 10653 10649 10645 10641 10636 10630 10622 10616 10614 10610 10604 10598 10591 10583 10578 10573 10568 10563 10558 10552 10547 10540 10533 10529 10524 10520 10517 10517 10513 10503 10494 10482 10471 10472 10467 10455 10452 10446 10440 10439 10433 10426 10420 10413 10407 10403 10398 10392 10386
10723 10723 10723 10723 10723 10723 10723 10722 10722 10721 10720 10720 10718 10717 10716 10714 10713 10711 10710 10708 10706 10704 10702 10700 10698 10695 10693 10690 10687 10684 10681 10678 10674 10671 10667 10663 10659 10654 10650 10646 10640 10636 10633 10627 10622 10614 10605 10601 10599 10594 10588 10582 10574 10567 10561 10555 10549 10544 10538 10532 10525 10519 10515 10510 10505 10498 10495 10493 10485 10479 10468 10452 10451 10451 10441 10436 10431 10422 10419 10417 10411 10405 10398 10393 10389 10384 10379 10373
10723 10723 10723 10723 10723 10723 10722 10722 10721 10720 10719 10718 10716 10715 10714 10712 10711 10709 10707 10706 10704 10702 10699 10697 10694 10691 10688 10685 10682 10679 10676 10672 10668 10664 10660 10655 10651 10647 10643 10639 10634 10629 10625 10620 10616 10610 10600 10591 10587 10584 10576 10570 10563 10555 10549 10542 10536 10530 10524 10517 10510 10505 10501 10497 10493 10487 10481 10478 10471 10465 10457 10441 10436 10438 10429 10420 10417 10409 10401 10397 10394 10389 10383 10378 10374 10369 10365 10360
10724 10723 10723 10723 10722 10722 10721 10720 10719 10718 10717 10715 10714 10713 10712 10710 10708 10707 10705 10703 10701 10698 10696 10693 10690 10687 10684 10680 10676 10673 10669 10665 10662 10657 10653 10648 10643 10639 10635 10630 10625 10620 10616 10612 10607 10603 10597 10586 10578 10574 10567 10560 10553 10545 10537 10530 10523 10517 10511 10505 10498 10494 10491 10484 10480 10476 10470 10467 10464 10457 10447 10430 10424 10427 10420 10410 10406 10401 10393 10386 10381 10377 10370 10365 10362 10356 10352 10348
10723 10723 10722 10722 10721 10720 10719 10718 10717 10716 10715 10714 10712 10711 10709 10708 10706 10704 10702 10700 10697 10695 10692 10689 10686 10682 10679 10675 10670 10666 10662 10658 10654 10650 10646 10641 10636 10631 10626 10621 10617 10612 10607 10603 10597 10592 10589 10580 10570 10564 10558 10551 10544 10535 10526 10518 10510 10504 10497 10491 10486 10483 10482 10476 10467 10461 10456 10450 10450 10451 10441 10420 10410 10413 10407 10399 10394 10389 10383 10375 10367 10364 10358 10352 10349 10345 10341 10336
10722 10722 10721 10720 10719 10718 10717 10716 10715 10714 10713 10711 10710 10708 10707 10705 10703 10701 10699 10696 10693 10690 10687 10684 10681 10677 10673 10669 10665 10660 10656 10652 10647 10643 10638 10633 10628 10623 10618 10613 10608 10604 10598 10593 10588 10581 10577 10572 10562 10553 10545 10538 10531 10524 10516 10508 10500 10492 10485 10479 10474 10471 10471 10467 10456 10446 10440 10432 10428 10437 10437 10415 10398 10398 10393 10386 10382 10374 10367 10362 10354 10348 10343 10338 10335 10332 10328 10323
10721 10720 10720 10719 10718 10717 10716 10715 10713 10712 10710 10709 10707 10705 10704 10702 10700 10697 10695 10692 10689 10686 10682 10678 10674 10671 10667 10663 10659 10654 10650 10645 10640 10635 10630 10625 10621 10616 10611 10605 10599 10594 10589 10583 10578 10571 10565 10560 10552 10544 10534 10526 10519 10512 10506 10499 10491 10483 10475 10468 10465 10462 10460 10457 10448 10435 10426 10416 10409 10416 10425 10410 10388 10381 10376 10370 10367 10361 10352 10347 10343 10335 10329 10323 10320 10316 10312 10308
10720 10719 10718 10717 10716 10715 10714 10712 10711 10710 10708 10706 10704 10703 10700 10698 10696 10693 10690 10687 10684 10680 10677 10673 10669 10665 10661 10656 10652 10647 10642 10637 10632 10628 10623 10619 10614 10609 10604 10598 10592 10586 10580 10573 10567 10561 10556 10550 10543 10535 10527 10519 10512 10505 10498 10489 10480 10471 10463 10456 10453 10452 10448 10444 10438 10429 10417 10406 10397 10397 10406 10402 10381 10367 10362 10356 10352 10348 10339 10333 10330 10325 10317 10311 10307 10302 10296 10291
10719 10718 10716 10715 10714 10713 10712 10710 10709 10707 10705 10703 10701 10699 10697 10694 10692 10689 10685 10681 10678 10675 10671 10668 10663 10659 10654 10649 10644 10639 10634 10630 10625 10621 10616 10612 10607 10602 10596 10591 10584 10578 10571 10564 10558 10551 10546 10542 10536 10527 10518 10508 10501 10496 10490 10481 10471 10460 10449 10442 10441 10440 10436 10428 10421 10417 10410 10400 10392 10388 10391 10393 10378 10359 10350 10344 10337 10332 10325 10317 10313 10310 10305 10299 10293 10289 10283 10276
10717 10716 10714 10713 10712 10711 10710 10708 10706 10705 10703 10700 10698 10696 10693 10690 10687 10684 10681 10677 10673 10670 10665 10661 10657 10652 10647 10642 10637 10633 10628 10624 10619 10614 10610 10604 10599 10593 10587 10581 10575 10569 10562 10555 10549 10542 10536 10533 10529 10523 10515 10505 10495 10488 10481 10471 10461 10451 10441 10433 10430 10429 10425 10417 10407 10401 10398 10392 10385 10379 10378 10382 10374 10354 10341 10333 10325 10320 10313 10304 10299 10296 10293 10288 10282 10276 10269 10262
10715 10714 10713 10711 10710 10709 10707 10706 10704 10702 10700 10697 10695 10692 10689 10686 10682 10679 10676 10672 10668 10664 10659 10654 10650 10645 10641 10636 10632 10628 10624 10619 10614 10608 10603 10597 10591 10584 10578 10572 10566 10560 10554 10548 10541 10533 10526 10521 10516 10511 10505 10500 10497 10493 10485 10475 10462 10450 10439 10429 10423 10419 10413 10406 10396 10389 10383 10380 10377 10369 10364 10369 10367 10350 10336 10327 10319 10313 10307 10297 10290 10287 10283 10279 10273 10266 10258 10250
10713 10712 10711 10710 10708 10707 10705 10703 10701 10699 10696 10694 10691 10688 10684 10681 10678 10674 10670 10666 10661 10657 10653 10648 10644 10640 10635 10631 10626 10622 10617 10612 10607 10601 10595 10589 10583 10576 10570 10564 10559 10553 10548 10542 10535 10527 10519 10511 10506 10499 10487 10479 10480 10478 10471 10465 10457 10445 10436 10427 10418 10410 10402 10393 10387 10380 10371 10368 10370 10361 10349 10353 10356 10342 10330 10323 10313 10306 10300 10291 10284 10279 10275 10270 10262 10254 10247 10240
10712 10711 10709 10708 10706 10704 10702 10700 10697 10695 10692 10689 10686 10683 10680 10676 10673 10669 10665 10661 10656 10652 10648 10643 10639 10634 10629 10624 10619 10613 10608 10603 10598 10593 10587 10581 10575 10569 10563 10557 10552 10547 10542 10536 10529 10522 10515 10508 10501 10494 10480 10467 10465 10462 10452 10445 10439 10431 10425 10422 10415 10405 10395 10386 10380 10372 10361 10356 10361 10357 10341 10336 10338 10329 10321 10315 10304 10294 10287 10278 10273 10270 10266 10259 10251 10243 10236 10230
10710 10709 10707 10705 10703 10701 10699 10696 10694 10691 10688 10685 10682 10679 10675 10671 10667 10663 10659 10656 10652 10647 10643 10639 10634 10629 10623 10618 10612 10606 10601 10596 10591 10586 10580 10574 10567 10561 10556 10550 10545 10540 10535 10530 10523 10517 10511 10505 10499 10492 10480 10466 10461 10458 10449 10438 10430 10419 10413 10412 10409 10401 10390 10382 10374 10366 10354 10345 10347 10347 10335 10325 10321 10315 10309 10302 10291 10281 10272 10263 10258 10256 10252 10245 10238 10230 10224 10218
10708 10706 10704 10702 10700 10697 10695 10693 10690 10687 10684 10681 10678 10674 10670 10666 10662 10659 10655 10651 10647 10643 10639 10634 10629 10624 10619 10614 10609 10603 10597 10591 10585 10579 10574 10568 10561 10554 10548 10543 10538 10533 10528 10522 10516 10511 10506 10501 10497 10491 10479 10465 10458 10454 10445 10434 10425 10414 10404 10400 10397 10392 10382 10375 10368 10358 10347 10338 10332 10329 10322 10314 10306 10299 10294 10288 10278 10268 10258 10248 10243 10240 10234 10227 10220 10213 10207 10201
10705 10703 10701 10699 10696 10694 10691 10689 10686 10684 10681 10677 10673 10669 10665 10661 10658 10654 10650 10647 10643 10637 10633 10629 10623 10618 10614 10609 10605 10600 10595 10589 10583 10576 10569 10563 10556 10550 10543 10537 10532 10527 10522 10516 10509 10504 10500 10495 10491 10489 10480 10464 10456 10451 10441 10429 10420 10410 10401 10393 10386 10381 10373 10365 10358 10351 10342 10333 10324 10316 10308 10302 10295 10286 10279 10273 10265 10255 10245 10233 10227 10224 10217 10209 10202 10195 10189 10184
10701 10699 10697 10695 10693 10690 10688 10686 10683 10680 10676 10673 10669 10665 10661 10656 10653 10650 10645 10641 10637 10632 10627 10623 10618 10614 10609 10604 10599 10594 10589 10583 10577 10572 10565 10558 10551 10545 10539 10533 10528 10522 10516 10510 10503 10497 10493 10488 10482 10481 10477 10464 10454 10449 10439 10426 10414 10403 10395 10387 10378 10372 10367 10359 10351 10345 10338 10329 10318 10307 10297 10290 10284 10276 10268 10261 10253 10244 10233 10220 10212 10209 10202 10193 10186 10180 10173 10168
10698 10696 10694 10692 10689 10687 10685 10682 10679 10676 10673 10669 10665 10661 10657 10653 10649 10645 10640 10635 10631 10627 10622 10618 10613 10609 10604 10600 10595 10589 10583 10576 10570 10565 10559 10552 10545 10539 10534 10528 10522 10517 10510 10503 10495 10488 10483 10479 10473 10470 10470 10462 10452 10447 10439 10426 10413 10400 10389 10381 10372 10364 10359 10352 10344 10336 10329 10318 10307 10298 10289 10280 10273 10265 10259 10253 10245 10235 10224 10210 10198 10193 10187 10179 10173 10167 10160 10154
10695 10693 10691 10688 10686 10684 10681 10679 10676 10673 10669 10665 10660 10656 10653 10649 10644 10640 10636 10631 10627 10623 10618 10614 10610 10605 10601 10596 10590 10585 10579 10572 10565 10559 10554 10546 10538 10531 10525 10519 10513 10508 10504 10496 10489 10481 10474 10469 10462 10457 10457 10454 10445 10440 10434 10422 10410 10398 10386 10374 10364 10355 10348 10342 10337 10330 10320 10308 10295 10286 10278 10269 10260 10250 10242 10237 10231 10224 10215 10201 10186 10176 10168 10163 10159 10153 10146 10139